This demonstration page uses our WeatherBlox Daily Observations layout. Learn more.

Left ArrowRight Arrow

Hourly Observations for September 24, 2015

Temp ( °F °C ) Dew Point ( °F °C ) Humidity (%) Winds ( mph kmh ) Pressure ( in mb ) Visibility ( mi km ) Precip ( " mm )
12:53 am 00:53 Clear 63 17.2 45 7.2 52 52 W 3 6 29.91 1013 10 16 0.00 0.00
1:53 am 01:53 Clear 61 16.1 44 6.7 54 54 Calm 29.92 1013 10 16 0.00 0.00
2:53 am 02:53 Clear 59 15 45 7.2 60 60 Calm 29.93 1014 10 16 0.00 0.00
3:53 am 03:53 Clear 59 15 44 6.7 58 58 N 3 6 29.93 1014 10 16 0.00 0.00
4:53 am 04:53 Clear 64 17.8 41 5 43 43 NNW 5 7 29.93 1014 10 16 0.00 0.00
5:53 am 05:53 Clear 65 18.3 40 4.4 40 40 NNW 3 6 29.92 1013 10 16 0.00 0.00
6:53 am 06:53 Clear 61 16.1 44 6.7 54 54 N 6 9 29.93 1013 10 16 0.00 0.00
7:53 am 07:53 Sunny 64 17.8 45 7.2 50 50 WSW 3 6 29.97 1015 10 16 0.00 0.00
8:53 am 08:53 Sunny 68 20 46 7.8 45 45 Calm 29.97 1015 10 16 0.00 0.00
9:53 am 09:53 Sunny 75 23.9 39 3.9 27 27 NNE 3 6 29.97 1015 10 16 0.00 0.00
10:53 am 10:53 Sunny 81 27.2 38 3.3 21 21 NNW 5 7 29.97 1015 10 16 0.00 0.00
11:53 am 11:53 Sunny 87 30.6 37 2.8 17 17 Calm 29.95 1014 10 16 0.00 0.00
12:53 pm 12:53 Sunny 89 31.7 39 3.9 17 17 SW 5 7 29.93 1014 10 16 0.00 0.00
1:53 pm 13:53 Sunny 91 32.8 37 2.8 15 15 Calm 29.91 1013 10 16 0.00 0.00
2:53 pm 14:53 Sunny 93 33.9 38 3.3 14 14 W 7 11 29.87 1012 10 16 0.00 0.00
3:53 pm 15:53 Sunny 94 34.4 36 2.2 13 13 undefined N/A 29.86 1011 10 16 0.00 0.00
4:53 pm 16:53 Sunny 94 34.4 36 2.2 13 13 Calm 29.84 1010 10 16 0.00 0.00
5:53 pm 17:53 Sunny 95 35 35 1.7 12 12 Calm 29.83 1010 10 16 0.00 0.00
6:53 pm 18:53 Sunny 89 31.7 39 3.9 17 17 Calm 29.83 1010 10 16 0.00 0.00
7:53 pm 19:53 Clear 81 27.2 42 5.6 25 25 Calm 29.82 1010 10 16 0.00 0.00
8:53 pm 20:53 Clear 74 23.3 43 6.1 33 33 N 3 6 29.83 1010 10 16 0.00 0.00
9:53 pm 21:53 Clear 71 21.7 43 6.1 36 36 Calm 29.85 1011 10 16 0.00 0.00
10:53 pm 22:53 Clear 69 20.6 43 6.1 39 39 Calm 29.85 1011 10 16 0.00 0.00
11:53 pm 23:53 Clear 65 18.3 44 6.7 47 47 Calm 29.85 1011 10 16 0.00 0.00

Powered by AerisWeather